Volver al catálogo

OPS 5798 DEB

ActivoPO
NORAD 903·DEBRIS·🇺🇸 United States

Lanzado Oct 6, 1964 desde Vandenberg Space Force Base

Loading…

Próximos Pases (próximas 24 horas)

TLE

ActualizadoSource: Space-Track

Época: Sep 14, 2026, 05:38 UTC

1 00903U 64063F   26257.23520241  .00000578  00000-0  53953-3 0  9990
2 00903  90.2203  73.1980 0021462 193.5034 341.4654 13.80849848 86653

Sigue OPS 5798 DEB en tiempo real con AllMySat

Download on the App Store